EW3857 Weather Reports


Display with metric or nautical units.
time (UTC)temp
F
wind
direction
speed
MPH
gust
MPH
rain 1hr
in
rain 24hr
in
rain mn
in
humidity
%
barometer
mb
20260901213327 92 172 0.0 0.0 0.00 0.00 0.00 44 1019.5
20260901212822 92 167 0.0 0.0 0.00 0.00 0.00 49 1020.0
20260901212318 92 178 0.0 0.0 0.00 0.00 0.00 49 1019.8
20260901211814 93 168 0.0 0.0 0.00 0.00 0.00 49 1020.0
20260901211310 93 175 0.0 0.0 0.00 0.00 0.00 49 1019.9
20260901210805 94 176 0.0 0.0 0.00 0.00 0.00 47 1020.1
20260901210301 95 176 0.0 0.0 0.00 0.00 0.00 48 1020.0
20260901205757 95 178 0.0 0.0 0.00 0.00 0.00 47 1020.3
20260901205256 94 178 0.0 0.0 0.00 0.00 0.00 46 1020.2
20260901204751 94 176 0.0 0.0 0.00 0.00 0.00 47 1020.3
20260901204242 95 176 0.0 0.0 0.00 0.00 0.00 46 1020.0
20260901203736 94 178 0.0 0.0 0.00 0.00 0.00 47 1020.4
20260901203231 93 177 0.0 0.0 0.00 0.00 0.00 54 1020.4
20260901202730 93 176 0.0 0.0 0.00 0.00 0.00 52 1020.4
20260901202226 95 177 0.0 0.0 0.00 0.00 0.00 50 1020.6
20260901201721 95 179 0.0 0.0 0.00 0.00 0.00 54 1020.5
20260901201220 94 178 0.0 0.0 0.00 0.00 0.00 53 1020.5
20260901200720 93 178 0.0 0.0 0.00 0.00 0.00 54 1020.7
20260901200215 93 177 0.0 0.0 0.00 0.00 0.00 55 1020.7
20260901195708 93 174 0.0 0.0 0.00 0.00 0.00 55 1020.8
20260901195202 92 175 0.0 0.0 0.00 0.00 0.00 57 1020.8
20260901194658 93 172 0.0 0.0 0.00 0.00 0.00 60 1020.7
20260901194152 93 177 0.0 0.0 0.00 0.00 0.00 57 1020.9
20260901193648 93 176 0.0 0.0 0.00 0.00 0.00 59 1020.8
20260901193142 92 176 0.0 0.0 0.00 0.00 0.00 58 1021.1
20260901192637 92 174 0.0 0.0 0.00 0.00 0.00 56 1021.2
20260901192132 91 176 0.0 0.0 0.00 0.00 0.00 57 1021.1
20260901191628 91 172 0.0 0.0 0.00 0.00 0.00 57 1021.1
20260901191124 92 171 0.0 0.0 0.00 0.00 0.00 58 1021.2
20260901190620 92 174 0.0 0.0 0.00 0.00 0.00 55 1021.3
20260901190119 92 171 0.0 0.0 0.00 0.00 0.00 56 1021.3
20260901185618 92 177 0.0 0.0 0.00 0.00 0.00 57 1021.4
20260901185116 92 175 0.0 0.0 0.00 0.00 0.00 55 1021.4
20260901184612 91 175 0.0 0.0 0.00 0.00 0.00 56 1021.6
20260901184107 91 176 0.0 0.0 0.00 0.00 0.00 60 1021.6
20260901183602 91 174 0.0 0.0 0.00 0.00 0.00 62 1021.7
20260901183058 91 173 0.0 0.0 0.00 0.00 0.00 62 1021.5
20260901182553 91 174 0.0 0.0 0.00 0.00 0.00 61 1021.8
20260901182047 91 171 0.0 0.0 0.00 0.00 0.00 62 1022.0
20260901181547 90 170 0.0 0.0 0.00 0.00 0.00 66 1021.9
20260901181046 90 175 0.0 0.0 0.00 0.00 0.00 65 1021.8
20260901180545 90 173 0.0 0.0 0.00 0.00 0.00 62 1022.1
20260901180040 90 170 0.0 0.0 0.00 0.00 0.00 62 1022.0
20260901175534 90 176 0.0 0.0 0.00 0.00 0.00 62 1022.1
20260901175029 90 173 0.0 0.0 0.00 0.00 0.00 61 1022.1
20260901174525 91 172 0.0 0.0 0.00 0.00 0.00 61 1021.9
20260901174020 90 172 0.0 0.0 0.00 0.00 0.00 61 1022.0
20260901173514 90 171 0.0 0.0 0.00 0.00 0.00 64 1022.2
20260901173010 90 174 0.0 0.0 0.00 0.00 0.00 61 1022.3
20260901172505 90 173 0.0 0.0 0.00 0.00 0.00 62 1022.0
20260901172003 89 172 0.0 0.0 0.00 0.00 0.00 63 1022.2
20260901171502 90 174 0.0 0.0 0.00 0.00 0.00 63 1022.3
20260901171001 90 174 0.0 0.0 0.00 0.00 0.00 64 1022.4
20260901170456 89 175 0.0 0.0 0.00 0.00 0.00 63 1022.5
20260901165955 90 174 0.0 0.0 0.00 0.00 0.00 65 1022.5
20260901165451 90 173 0.0 0.0 0.00 0.00 0.00 64 1022.5
20260901164947 90 174 0.0 0.0 0.00 0.00 0.00 64 1022.5
20260901164442 89 175 0.0 0.0 0.00 0.00 0.00 64 1022.7
20260901163937 89 175 0.0 0.0 0.00 0.00 0.00 65 1022.8
20260901163432 89 175 0.0 0.0 0.00 0.00 0.00 64 1022.7
20260901162931 89 175 0.0 0.0 0.00 0.00 0.00 64 1022.9
20260901162426 88 176 0.0 0.0 0.00 0.00 0.00 66 1022.7
20260901161920 88 174 0.0 0.0 0.00 0.00 0.00 66 1022.7
20260901161419 88 171 0.0 0.0 0.00 0.00 0.00 66 1023.1
20260901160914 88 174 0.0 0.0 0.00 0.00 0.00 68 1022.8
20260901160411 87 174 0.0 0.0 0.00 0.00 0.00 70 1022.8
20260901155909 87 168 0.0 0.0 0.00 0.00 0.00 73 1023.3
20260901155404 87 174 0.0 0.0 0.00 0.00 0.00 71 1023.1
20260901154901 86 174 0.0 0.0 0.00 0.00 0.00 73 1023.2
20260901154400 86 168 0.0 0.0 0.00 0.00 0.00 74 1023.2
20260901153854 85 174 0.0 0.0 0.00 0.00 0.00 75 1023.0
20260901153354 84 175 0.0 0.0 0.00 0.00 0.00 77 1023.1
20260901152853 84 174 0.0 0.0 0.00 0.00 0.00 79 1023.5
20260901152348 83 169 0.0 0.0 0.00 0.00 0.00 80 1023.0
20260901151843 83 170 0.0 0.0 0.00 0.00 0.00 82 1023.0
20260901151337 82 165 0.0 0.0 0.00 0.00 0.00 83 1023.0
20260901150838 82 172 0.0 0.0 0.00 0.00 0.00 83 1023.1
20260901150335 82 167 0.0 0.0 0.00 0.00 0.00 83 1023.3
20260901145833 82 164 0.0 0.0 0.00 0.00 0.00 84 1023.1
20260901145332 81 158 0.0 0.0 0.00 0.00 0.00 84 1023.3
20260901144827 81 163 0.0 0.0 0.00 0.00 0.00 87 1023.1
20260901144323 81 164 0.0 0.0 0.00 0.00 0.00 86 1023.4
20260901143819 80 169 0.0 0.0 0.00 0.00 0.00 89 1023.1
20260901143315 80 172 0.0 0.0 0.00 0.00 0.00 88 1023.1
20260901142811 80 159 0.0 0.0 0.00 0.00 0.00 89 1023.1
20260901142310 80 161 0.0 0.0 0.00 0.00 0.00 90 1023.1
20260901141806 80 186 0.0 0.0 0.00 0.00 0.00 90 1023.2
20260901141301 80 163 0.0 0.0 0.00 0.00 0.00 90 1023.2
20260901140759 80 169 0.0 0.0 0.00 0.00 0.00 92 1023.1
20260901140258 80 175 0.0 0.0 0.00 0.00 0.00 92 1023.1
20260901135753 80 174 0.0 0.0 0.00 0.00 0.00 92 1023.2
20260901135247 79 176 0.0 0.0 0.00 0.00 0.00 93 1023.0
20260901134743 79 170 0.0 0.0 0.00 0.00 0.00 93 1023.1
20260901134243 79 169 0.0 0.0 0.00 0.00 0.00 93 1023.0
20260901133742 79 177 0.0 0.0 0.00 0.00 0.00 93 1023.0
20260901133236 79 170 0.0 0.0 0.00 0.00 0.00 93 1023.2
20260901132734 79 163 0.0 0.0 0.00 0.00 0.00 93 1023.1
20260901132230 79 169 0.0 0.0 0.00 0.00 0.00 94 1023.1
20260901131724 79 176 0.0 0.0 0.00 0.00 0.00 94 1023.1
20260901131224 78 172 0.0 0.0 0.00 0.00 0.00 94 1023.0
20260901130719 78 173 0.0 0.0 0.00 0.00 0.00 94 1023.1
20260901130218 78 169 0.0 0.0 0.00 0.00 0.00 94 1023.2
20260901125711 78 168 0.0 0.0 0.00 0.00 0.00 94 1022.8
20260901125206 78 163 0.0 0.0 0.00 0.00 0.00 95 1023.1
20260901124701 78 170 0.0 0.0 0.00 0.00 0.00 95 1022.8
20260901124200 78 177 0.0 0.0 0.00 0.00 0.00 95 1022.7
20260901123655 78 174 0.0 0.0 0.00 0.00 0.00 96 1022.9
20260901123150 77 176 0.0 0.0 0.00 0.00 0.00 96 1022.8
20260901122648 77 180 0.0 0.0 0.00 0.00 0.00 97 1023.1
20260901122143 77 176 0.0 0.0 0.00 0.00 0.00 98 1022.9
20260901121637 76 178 0.0 0.0 0.00 0.00 0.00 98 1022.7
20260901121132 76 179 0.0 0.0 0.00 0.00 0.00 99 1022.6
20260901120626 76 179 0.0 0.0 0.00 0.00 0.00 99 1022.6
20260901120121 76 183 0.0 0.0 0.00 0.00 0.00 99 1022.6
20260901115617 76 180 0.0 0.0 0.00 0.00 0.00 99 1022.4
20260901115114 75 175 0.0 0.0 0.00 0.00 0.00 99 1022.5
20260901114610 75 183 0.0 0.0 0.00 0.00 0.00 99 1022.5
20260901114108 75 179 0.0 0.0 0.00 0.00 0.00 99 1022.4
20260901113607 74 183 0.0 0.0 0.00 0.00 0.00 99 1022.3
20260901113057 74 180 0.0 0.0 0.00 0.00 0.00 99 1022.2
20260901112556 74 181 0.0 0.0 0.00 0.00 0.00 99 1022.1
20260901112051 74 180 0.0 0.0 0.00 0.00 0.00 99 1022.2
20260901111550 74 180 0.0 0.0 0.00 0.00 0.00 99 1021.9
20260901111049 74 181 0.0 0.0 0.00 0.00 0.00 99 1022.0
20260901110545 75 181 0.0 0.0 0.00 0.00 0.00 99 1022.0
20260901110041 75 180 0.0 0.0 0.00 0.00 0.00 99 1022.0
20260901105537 74 180 0.0 0.0 0.00 0.00 0.00 99 1021.8
20260901105036 74 180 0.0 0.0 0.00 0.00 0.00 99 1022.0
20260901104532 74 182 0.0 0.0 0.00 0.00 0.00 99 1021.8
20260901104027 74 183 0.0 0.0 0.00 0.00 0.00 99 1021.6
20260901103522 74 181 0.0 0.0 0.00 0.00 0.00 99 1021.7
20260901103018 74 184 0.0 0.0 0.00 0.00 0.00 99 1021.8
20260901102517 74 181 0.0 0.0 0.00 0.00 0.00 99 1021.9
20260901102012 75 181 0.0 0.0 0.00 0.00 0.00 99 1021.5
20260901101508 75 182 0.0 0.0 0.00 0.00 0.00 99 1021.7
20260901101007 75 181 0.0 0.0 0.00 0.00 0.00 99 1021.5
20260901100502 75 183 0.0 0.0 0.00 0.00 0.00 99 1021.6
20260901100000 75 183 0.0 0.0 0.00 0.00 0.00 99 1021.5
20260901095500 75 180 0.0 0.0 0.00 0.00 0.00 99 1021.7
20260901094957 75 180 0.0 0.0 0.00 0.00 0.00 99 1021.4
20260901094453 75 180 0.0 0.0 0.00 0.00 0.00 99 1021.6
20260901093952 75 180 0.0 0.0 0.00 0.00 0.00 99 1021.4
20260901093447 75 182 0.0 0.0 0.00 0.00 0.00 99 1021.4
20260901092941 75 183 0.0 0.0 0.00 0.00 0.00 99 1021.2
20260901092437 75 182 0.0 0.0 0.00 0.00 0.00 99 1021.4
20260901091934 75 182 0.0 0.0 0.00 0.00 0.00 99 1021.5
20260901091433 75 183 0.0 0.0 0.00 0.00 0.00 99 1021.4
20260901090929 75 182 0.0 0.0 0.00 0.00 0.00 99 1021.2
20260901090428 75 182 0.0 0.0 0.00 0.00 0.00 99 1021.1
20260901085924 75 181 0.0 0.0 0.00 0.00 0.00 99 1021.1
20260901085420 75 183 0.0 0.0 0.00 0.00 0.00 99 1021.2
20260901084916 75 180 0.0 0.0 0.00 0.00 0.00 99 1021.1
20260901084413 76 181 0.0 0.0 0.00 0.00 0.00 99 1021.1
20260901083908 76 181 0.0 0.0 0.00 0.00 0.00 99 1021.2
20260901083408 76 182 0.0 0.0 0.00 0.00 0.00 99 1021.3
20260901082905 76 181 0.0 0.0 0.00 0.00 0.00 99 1021.1
20260901082401 76 181 0.0 0.0 0.00 0.00 0.00 99 1021.5
20260901081855 76 180 0.0 0.0 0.00 0.00 0.00 99 1021.1
20260901081351 76 180 0.0 0.0 0.00 0.00 0.00 99 1021.3
20260901080851 76 180 0.0 0.0 0.00 0.00 0.00 99 1021.2
20260901080345 76 182 0.0 0.0 0.00 0.00 0.00 99 1021.2
20260901075840 75 181 0.0 0.0 0.00 0.00 0.00 99 1021.1
20260901075335 75 180 0.0 0.0 0.00 0.00 0.00 99 1021.2
20260901074830 75 181 0.0 0.0 0.00 0.00 0.00 99 1021.0
20260901074324 75 183 0.0 0.0 0.00 0.00 0.00 99 1021.1
20260901073820 75 182 0.0 0.0 0.00 0.00 0.00 99 1021.0
20260901073315 75 182 0.0 0.0 0.00 0.00 0.00 99 1021.0
20260901072812 75 181 0.0 0.0 0.00 0.00 0.00 99 1021.2
20260901072311 75 181 0.0 0.0 0.00 0.00 0.00 99 1021.1
20260901071807 75 181 0.0 0.0 0.00 0.00 0.00 99 1021.2
20260901071305 75 182 0.0 0.0 0.00 0.00 0.00 99 1021.0
20260901070804 75 182 0.0 0.0 0.00 0.00 0.00 99 1020.8
20260901070259 75 181 0.0 0.0 0.00 0.00 0.00 99 1021.0
20260901065759 75 181 0.0 0.0 0.00 0.00 0.00 99 1020.9
20260901065254 75 181 0.0 0.0 0.00 0.00 0.00 99 1020.9
20260901064750 75 181 0.0 0.0 0.00 0.00 0.00 99 1021.1
20260901064246 75 181 0.0 0.0 0.00 0.00 0.00 99 1021.1
20260901063743 75 181 0.0 0.0 0.00 0.00 0.00 99 1021.0
20260901063239 75 181 0.0 0.0 0.00 0.00 0.00 99 1021.0
20260901062735 75 181 0.0 0.0 0.00 0.00 0.00 99 1021.1
20260901062230 75 181 0.0 0.0 0.00 0.00 0.00 99 1021.3
20260901061726 75 181 0.0 0.0 0.00 0.00 0.00 99 1021.0
20260901061225 75 182 0.0 0.0 0.00 0.00 0.00 99 1021.2
20260901060721 75 180 0.0 0.0 0.00 0.00 0.00 99 1021.2
20260901060216 75 180 0.0 0.0 0.00 0.00 0.00 99 1021.0
20260901055712 75 181 0.0 0.0 0.00 0.00 0.00 98 1021.2
20260901055208 75 180 0.0 0.0 0.00 0.00 0.00 98 1021.3
20260901054705 75 180 0.0 0.0 0.00 0.00 0.00 98 1021.3
20260901054201 75 180 0.0 0.0 0.00 0.00 0.00 98 1021.3
20260901053657 75 180 0.0 0.0 0.00 0.00 0.00 98 1021.3
20260901053152 75 180 0.0 0.0 0.00 0.00 0.00 98 1021.3
20260901052648 75 180 0.0 0.0 0.00 0.00 0.00 98 1021.2
20260901052143 75 180 0.0 0.0 0.00 0.00 0.00 98 1021.3
20260901051642 75 180 0.0 0.0 0.00 0.00 0.00 98 1021.3
20260901051141 76 180 0.0 0.0 0.00 0.00 0.00 98 1021.1
20260901050637 75 180 0.0 0.0 0.00 0.00 0.00 98 1021.3
20260901050133 75 181 0.0 0.0 0.00 0.00 0.00 98 1021.1
20260901045632 75 180 0.0 0.0 0.00 0.00 0.00 97 1021.1
20260901045127 75 180 0.0 0.0 0.00 0.00 0.00 97 1021.4
20260901044623 75 180 0.0 0.0 0.00 0.00 0.00 97 1021.3
20260901044119 75 180 0.0 0.0 0.00 0.00 0.00 97 1021.1
20260901043614 75 180 0.0 0.0 0.00 0.00 0.00 97 1021.4
20260901043110 75 180 0.0 0.0 0.00 0.00 0.00 97 1021.0
20260901042609 75 180 0.0 0.0 0.00 0.00 0.00 96 1021.2
20260901042104 75 180 0.0 0.0 0.00 0.00 0.00 96 1021.2
20260901041600 75 180 0.0 0.0 0.00 0.00 0.00 96 1021.1
20260901041055 76 180 0.0 0.0 0.00 0.00 0.00 96 1021.1
20260901040554 76 180 0.0 0.0 0.00 0.00 0.00 96 1021.0
20260901040049 76 180 0.0 0.0 0.00 0.00 0.00 96 1021.3
20260901035547 76 180 0.0 0.0 0.00 0.00 0.00 96 1021.0
20260901035045 76 180 0.0 0.0 0.00 0.00 0.00 96 1021.1
20260901034540 76 179 0.0 0.0 0.00 0.00 0.00 95 1021.2
20260901034035 76 179 0.0 0.0 0.00 0.00 0.00 95 1021.4
20260901033533 76 179 0.0 0.0 0.00 0.00 0.00 95 1021.3
20260901033033 76 179 0.0 0.0 0.00 0.00 0.00 94 1021.3
20260901032532 76 179 0.0 0.0 0.00 0.00 0.00 94 1021.1
20260901032027 76 179 0.0 0.0 0.00 0.00 0.00 94 1021.2
20260901031523 76 179 0.0 0.0 0.00 0.00 0.00 94 1021.3
20260901031019 76 179 0.0 0.0 0.00 0.00 0.00 93 1021.2
20260901030518 76 179 0.0 0.0 0.00 0.00 0.00 93 1021.3
20260901030013 76 179 0.0 0.0 0.00 0.00 0.00 93 1021.3
20260901025512 76 179 0.0 0.0 0.00 0.00 0.00 93 1021.3
20260901025007 76 179 0.0 0.0 0.00 0.00 0.00 93 1021.4
20260901024502 77 179 0.0 0.0 0.00 0.00 0.00 92 1021.3
20260901024001 77 180 0.0 0.0 0.00 0.00 0.00 92 1021.3
20260901023455 77 180 0.0 0.0 0.00 0.00 0.00 92 1021.3
20260901022950 77 178 0.0 0.0 0.00 0.00 0.00 91 1021.1
20260901022445 77 178 0.0 0.0 0.00 0.00 0.00 91 1021.2
20260901021940 77 178 0.0 0.0 0.00 0.00 0.00 91 1021.2
20260901021436 77 179 0.0 0.0 0.00 0.00 0.00 91 1021.1
20260901020931 77 180 0.0 0.0 0.00 0.00 0.00 91 1021.1
20260901020426 77 178 0.0 0.0 0.00 0.00 0.00 90 1021.0
20260901015925 77 178 0.0 0.0 0.00 0.00 0.00 90 1021.1
20260901015422 77 178 0.0 0.0 0.00 0.00 0.00 89 1021.0
20260901014921 78 179 0.0 0.0 0.00 0.00 0.00 89 1020.8
20260901014418 78 178 0.0 0.0 0.00 0.00 0.00 88 1020.8
20260901013913 78 180 0.0 0.0 0.00 0.00 0.00 88 1020.7
20260901013408 78 182 0.0 0.0 0.00 0.00 0.00 88 1020.6
20260901012904 78 239 0.0 0.0 0.00 0.00 0.00 88 1020.7
20260901012359 78 250 0.0 0.0 0.00 0.00 0.00 88 1020.5
20260901011854 78 273 0.0 0.0 0.00 0.00 0.00 88 1020.4
20260901011350 78 271 0.0 0.0 0.00 0.00 0.00 88 1020.5
20260901010848 79 269 0.0 0.0 0.00 0.00 0.00 88 1020.6
20260901010343 78 270 0.0 0.0 0.00 0.00 0.00 87 1020.4
20260901005842 79 273 0.0 0.0 0.00 0.00 0.00 88 1020.3
20260901005337 79 271 0.0 0.0 0.00 0.00 0.00 88 1020.2
20260901004833 79 271 0.0 0.0 0.00 0.00 0.00 87 1020.3
20260901004326 80 271 0.0 0.0 0.00 0.00 0.00 86 1020.0
20260901003821 80 271 0.0 0.0 0.00 0.00 0.00 86 1020.0
20260901003316 80 272 0.0 0.0 0.00 0.00 0.00 86 1019.9
20260901002815 80 273 0.0 0.0 0.00 0.00 0.00 86 1020.1
20260901002309 81 274 0.0 0.0 0.00 0.00 0.00 85 1020.2
20260901001804 81 274 0.0 0.0 0.00 0.00 0.00 84 1019.9
20260901001259 81 275 0.0 0.0 0.00 0.00 0.00 84 1020.2
20260901000754 82 276 0.0 0.0 0.00 0.00 0.00 83 1020.1
20260901000250 82 274 0.0 0.0 0.00 0.00 0.00 83 1020.0
20260831235748 83 271 0.0 0.0 0.00 0.00 0.00 82 1020.0
20260831235244 84 278 0.0 0.0 0.00 0.00 0.00 82 1020.2
20260831234739 84 274 0.0 0.0 0.00 0.00 0.00 81 1020.0
20260831234238 85 273 0.0 0.0 0.00 0.00 0.00 80 1020.2
20260831233734 85 274 0.0 0.0 0.00 0.00 0.00 79 1020.2
20260831233229 86 277 0.0 0.0 0.00 0.00 0.00 77 1020.2
20260831232724 87 278 0.0 0.0 0.00 0.00 0.00 77 1020.2
20260831232220 87 274 0.0 0.0 0.00 0.00 0.00 76 1020.1
20260831231716 88 272 0.0 0.0 0.00 0.00 0.00 76 1020.1
20260831231212 88 271 0.0 0.0 0.00 0.00 0.00 75 1020.3
20260831230712 88 271 0.0 0.0 0.00 0.00 0.00 69 1020.4
20260831230208 89 271 0.0 0.0 0.00 0.00 0.00 68 1020.3
20260831225707 89 291 0.0 0.0 0.00 0.00 0.00 69 1020.4
20260831225202 89 266 0.0 0.0 0.00 0.00 0.00 60 1020.3
20260831224656 89 274 0.0 0.0 0.00 0.00 0.00 58 1020.3
20260831224152 89 317 0.0 0.0 0.00 0.00 0.00 59 1020.3
20260831223647 89 275 0.0 0.0 0.00 0.00 0.00 59 1020.3
20260831223144 90 309 0.0 0.0 0.00 0.00 0.00 59 1020.1
20260831222639 90 272 0.0 0.0 0.00 0.00 0.00 60 1020.5
20260831222134 90 332 0.0 0.0 0.00 0.00 0.00 61 1020.4
20260831221630 90 302 0.0 0.0 0.00 0.00 0.00 59 1020.4
20260831221125 89 325 0.0 0.0 0.00 0.00 0.00 59 1020.5
20260831220620 89 280 0.0 0.0 0.00 0.00 0.00 59 1020.8
20260831220115 89 329 0.0 0.0 0.00 0.00 0.00 59 1020.4
20260831215610 89 298 0.0 0.0 0.00 0.00 0.00 60 1020.9
20260831215106 89 313 0.0 0.0 0.00 0.00 0.00 60 1020.7
20260831214603 89 333 0.0 0.0 0.00 0.00 0.00 61 1020.7
20260831214059 89 335 0.0 0.0 0.00 0.00 0.00 61 1020.7